• In Uzbekistan
  • List of Countries
  • For 7 days
  • Water Temperature
  • Weather Map
  • Weather Widgets
  • user-avatar
    Login

    Hourly Weather Klagenfurt

    Today, 27 February, Thursday

    Time Temperature Precipitation Wind Pressure Humidity
    00:00 -2°C° 0 mm 1 mps 680 mmHg 89%
    01:00 -2°C° 0 mm 1 mps 681 mmHg 88%
    02:00 -3°C° 0 mm 1 mps 681 mmHg 85%
    03:00 -3°C° 0 mm 1 mps 681 mmHg 82%
    04:00 -3°C° 0 mm 1 mps 681 mmHg 79%
    05:00 -4°C° 0 mm 1 mps 681 mmHg 78%
    06:00 -4°C° 0 mm 1 mps 682 mmHg 77%
    07:00 -4°C° 0 mm 1 mps 682 mmHg 76%
    08:00 -2°C° 0 mm 1 mps 683 mmHg 72%
    09:00 0°C° 0 mm 1 mps 683 mmHg 68%
    10:00 +3°C° 0 mm 1 mps 684 mmHg 64%
    11:00 +3°C° 0 mm 1 mps 684 mmHg 61%
    12:00 +4°C° 0 mm 1 mps 684 mmHg 59%
    13:00 +4°C° 0 mm 2 mps 684 mmHg 56%
    14:00 +3°C° 0 mm 2 mps 683 mmHg 59%
    15:00 +3°C° 0 mm 2 mps 682 mmHg 62%
    16:00 +2°C° 0 mm 2 mps 680 mmHg 65%
    17:00 +1°C° 0 mm 2 mps 680 mmHg 72%
    18:00 -1°C° 0 mm 2 mps 679 mmHg 78%
    19:00 -2°C° 0 mm 2 mps 679 mmHg 84%
    20:00 -2°C° 0.1 mm 2 mps 678 mmHg 87%
    21:00 -3°C° 0.1 mm 2 mps 678 mmHg 89%
    22:00 -3°C° 0.1 mm 2 mps 677 mmHg 92%
    23:00 -3°C° 0 mm 2 mps 677 mmHg 92%

    Tomorrow, 28 February, Friday

    Time Temperature Precipitation Wind Pressure Humidity
    00:00 -3°C° 0 mm 2 mps 677 mmHg 91%
    01:00 -3°C° 0 mm 2 mps 678 mmHg 91%
    02:00 -3°C° 0 mm 2 mps 678 mmHg 90%
    03:00 -3°C° 0 mm 2 mps 678 mmHg 89%
    04:00 -4°C° 0 mm 2 mps 678 mmHg 88%
    05:00 -4°C° 0 mm 2 mps 679 mmHg 84%
    06:00 -4°C° 0 mm 2 mps 681 mmHg 80%
    07:00 -4°C° 0 mm 2 mps 682 mmHg 76%
    08:00 -2°C° 0 mm 3 mps 683 mmHg 68%
    09:00 -1°C° 0 mm 4 mps 685 mmHg 60%
    10:00 +1°C° 0 mm 5 mps 686 mmHg 51%
    11:00 +1°C° 0 mm 5 mps 687 mmHg 49%
    12:00 +3°C° 0 mm 4 mps 688 mmHg 47%
    13:00 +3°C° 0 mm 3 mps 688 mmHg 45%
    14:00 +4°C° 0 mm 2 mps 688 mmHg 47%
    15:00 +4°C° 0 mm 2 mps 689 mmHg 49%
    16:00 +5°C° 0 mm 1 mps 689 mmHg 51%
    17:00 +3°C° 0 mm 1 mps 689 mmHg 55%
    18:00 +1°C° 0 mm 1 mps 689 mmHg 60%
    19:00 -1°C° 0 mm 1 mps 689 mmHg 65%
    20:00 -1°C° 0 mm 1 mps 689 mmHg 67%
    21:00 -1°C° 0 mm 1 mps 690 mmHg 68%
    22:00 -1°C° 0 mm 1 mps 690 mmHg 70%
    23:00 -2°C° 0 mm 1 mps 689 mmHg 71%

    Day after tomorrow, 29 February, Saturday

    Time Temperature Precipitation Wind Pressure Humidity
    00:00 -2°C° 0 mm 1 mps 689 mmHg 72%
    01:00 -2°C° 0 mm 1 mps 689 mmHg 73%
    02:00 -2°C° 0 mm 1 mps 688 mmHg 73%
    03:00 -2°C° 0 mm 1 mps 688 mmHg 73%
    04:00 -2°C° 0 mm 1 mps 687 mmHg 73%
    05:00 -2°C° 0 mm 1 mps 687 mmHg 73%
    06:00 -2°C° 0 mm 1 mps 687 mmHg 73%
    07:00 -2°C° 0 mm 1 mps 686 mmHg 73%
    08:00 0°C° 0 mm 1 mps 686 mmHg 69%
    09:00 +1°C° 0 mm 2 mps 686 mmHg 66%
    10:00 +2°C° 0 mm 2 mps 686 mmHg 63%
    11:00 +3°C° 0 mm 2 mps 685 mmHg 65%
    12:00 +4°C° 0 mm 2 mps 685 mmHg 68%
    13:00 +4°C° 0 mm 2 mps 685 mmHg 70%
    14:00 +4°C° 0 mm 2 mps 684 mmHg 75%
    15:00 +3°C° 0 mm 3 mps 683 mmHg 79%
    16:00 +3°C° 0 mm 3 mps 683 mmHg 83%
    17:00 +3°C° 0 mm 2 mps 682 mmHg 87%
    18:00 +2°C° 0 mm 2 mps 682 mmHg 90%
    19:00 +2°C° 0 mm 2 mps 682 mmHg 94%
    20:00 +2°C° 0.3 mm 2 mps 682 mmHg 95%
    21:00 +2°C° 0.3 mm 2 mps 682 mmHg 96%
    22:00 +2°C° 0.3 mm 2 mps 681 mmHg 97%
    23:00 +2°C° 0.4 mm 2 mps 681 mmHg 97%

    1 March, Sunday

    Time Temperature Precipitation Wind Pressure Humidity
    00:00 +3°C° 0.4 mm 2 mps 681 mmHg 96%
    01:00 +3°C° 0.4 mm 2 mps 681 mmHg 96%
    02:00 +3°C° 0.7 mm 2 mps 681 mmHg 96%
    03:00 +3°C° 0.7 mm 2 mps 681 mmHg 96%
    04:00 +4°C° 0.7 mm 1 mps 681 mmHg 96%
    05:00 +4°C° 0.9 mm 1 mps 681 mmHg 96%
    06:00 +4°C° 0.9 mm 1 mps 681 mmHg 97%
    07:00 +4°C° 0.9 mm 1 mps 681 mmHg 97%
    08:00 +4°C° 1.7 mm 1 mps 681 mmHg 97%
    09:00 +4°C° 1.7 mm 1 mps 680 mmHg 98%
    10:00 +3°C° 1.7 mm 0 mps 680 mmHg 98%
    11:00 +3°C° 2.9 mm 0 mps 680 mmHg 98%
    12:00 +3°C° 2.9 mm 0 mps 680 mmHg 98%
    13:00 +4°C° 2.9 mm 1 mps 679 mmHg 99%
    14:00 +3°C° 1.3 mm 0 mps 679 mmHg 99%
    15:00 +3°C° 1.3 mm 0 mps 679 mmHg 99%
    16:00 +4°C° 1.3 mm 0 mps 678 mmHg 99%
    17:00 +3°C° 0.2 mm 0 mps 679 mmHg 98%
    18:00 +3°C° 0.2 mm 0 mps 679 mmHg 98%
    19:00 +3°C° 0.2 mm 0 mps 679 mmHg 98%
    20:00 +3°C° 0 mm 0 mps 678 mmHg 98%
    21:00 +3°C° 0 mm 0 mps 678 mmHg 98%
    22:00 +4°C° 0 mm 1 mps 678 mmHg 98%
    23:00 +4°C° 0.1 mm 1 mps 677 mmHg 98%

    2 March, Monday

    Time Temperature Precipitation Wind Pressure Humidity
    00:00 +4°C° 0.1 mm 1 mps 677 mmHg 98%
    01:00 +4°C° 0.1 mm 1 mps 676 mmHg 98%
    02:00 +4°C° 0.2 mm 1 mps 676 mmHg 98%
    03:00 +4°C° 0.2 mm 1 mps 675 mmHg 98%
    04:00 +3°C° 0.2 mm 0 mps 675 mmHg 98%
    05:00 +3°C° 0.1 mm 0 mps 675 mmHg 98%
    06:00 +3°C° 0.1 mm 0 mps 675 mmHg 97%
    07:00 +3°C° 0.1 mm 0 mps 676 mmHg 97%
    08:00 +4°C° 0.7 mm 1 mps 676 mmHg 95%
    09:00 +4°C° 0.7 mm 1 mps 676 mmHg 93%
    10:00 +5°C° 0.7 mm 1 mps 677 mmHg 92%
    11:00 +5°C° 0.6 mm 1 mps 677 mmHg 89%
    12:00 +5°C° 0.6 mm 1 mps 677 mmHg 87%
    13:00 +6°C° 0.6 mm 1 mps 678 mmHg 84%
    14:00 +4°C° 0.3 mm 0 mps 678 mmHg 86%
    15:00 +4°C° 0.3 mm 0 mps 678 mmHg 88%
    16:00 +4°C° 0.3 mm 0 mps 678 mmHg 90%
    17:00 +3°C° 0.2 mm 0 mps 678 mmHg 92%
    18:00 +3°C° 0.2 mm 0 mps 678 mmHg 94%
    19:00 +2°C° 0.2 mm 0 mps 679 mmHg 97%
    20:00 +2°C° 0.1 mm 0 mps 679 mmHg 97%
    21:00 +3°C° 0.1 mm 0 mps 679 mmHg 97%
    22:00 +3°C° 0.1 mm 0 mps 679 mmHg 97%
    23:00 +2°C° 0.1 mm 0 mps 679 mmHg 97%

    3 March, Tuesday

    Time Temperature Precipitation Wind Pressure Humidity
    00:00 +2°C° 0.1 mm 0 mps 679 mmHg 97%
    01:00 +2°C° 0.1 mm 0 mps 679 mmHg 97%
    02:00 +2°C° 0.4 mm 0 mps 679 mmHg 97%
    03:00 +3°C° 0.4 mm 1 mps 678 mmHg 97%
    04:00 +3°C° 0.4 mm 1 mps 678 mmHg 97%
    05:00 +3°C° 0.7 mm 1 mps 678 mmHg 97%
    06:00 +3°C° 0.7 mm 1 mps 678 mmHg 97%
    07:00 +3°C° 0.7 mm 1 mps 678 mmHg 97%
    08:00 +3°C° 1.2 mm 1 mps 678 mmHg 97%
    09:00 +3°C° 1.2 mm 1 mps 678 mmHg 97%
    10:00 +2°C° 1.2 mm 2 mps 678 mmHg 97%
    11:00 +2°C° 0.9 mm 2 mps 678 mmHg 96%
    12:00 +3°C° 0.9 mm 1 mps 679 mmHg 95%
    13:00 +4°C° 0.9 mm 1 mps 679 mmHg 95%
    14:00 +4°C° 0.5 mm 1 mps 679 mmHg 94%
    15:00 +4°C° 0.5 mm 1 mps 679 mmHg 94%
    16:00 +4°C° 0.5 mm 1 mps 679 mmHg 94%
    17:00 +4°C° 0.2 mm 1 mps 679 mmHg 94%
    18:00 +2°C° 0.2 mm 2 mps 680 mmHg 94%
    19:00 +2°C° 0.2 mm 2 mps 680 mmHg 94%
    20:00 +2°C° 0.1 mm 2 mps 680 mmHg 92%
    21:00 +1°C° 0.1 mm 2 mps 681 mmHg 90%
    22:00 +1°C° 0.1 mm 2 mps 681 mmHg 88%
    23:00 -1°C° 0 mm 2 mps 681 mmHg 87%
    Show more